Date String (YYYY-MM-DD hh:mm:ss) UTC,Instrument flags,Ambient pressure (hPa),Sample flow (lpm),Bypass flow (lpm),Sample temperature (°C),Ambient temperature (°C),ASC tube jacket temperature (°C),LED temperature (°C),Box temperature (°C),Sample RH (%),Span deviation,Mass concentration (μg/m³),Mass concentration (μg/m³),Mass concentration (μg/m³)
DateTimeUTC,F1_M11,P_M11,Q1_M11,Q2_M11,T1_M11,T2_M11,T3_M11,T4_M11,T5_M11,U1_M11,ZSPAN_M11,X0_M11,X2_M11,X1_M11
2022-06-13 14:00:00,,0816.1,5.00,0.00,29.5,28.4,00.0,38.4,31.4,09.5,0001.2,0019.02,0007.01,0005.27
2022-06-13 14:01:00,,0816.1,5.01,0.00,29.6,28.5,00.0,38.4,31.5,10.4,0001.6,0019.67,0007.49,0005.76
2022-06-13 14:02:00,,0816.1,5.00,0.00,29.6,28.6,00.0,38.4,31.5,11.3,0002.4,0019.73,0007.71,0006.05
2022-06-13 14:03:00,,0816.1,5.00,0.00,29.6,28.6,00.0,38.4,31.5,13.0,0002.7,0020.45,0007.77,0006.15
2022-06-13 14:04:00,,0816.2,5.02,0.00,29.6,28.7,00.0,38.4,31.6,12.2,0001.9,0021.30,0007.85,0006.19
2022-06-13 14:05:00,,0816.1,4.99,0.00,29.7,28.5,00.0,38.4,31.5,12.1,0002.3,0021.62,0007.93,0006.24
2022-06-13 14:06:00,,0816.1,4.99,0.00,29.6,27.8,00.0,38.4,31.4,11.4,0003.0,0021.95,0008.06,0006.32
2022-06-13 14:07:00,,0816.1,5.01,0.00,29.6,27.6,00.0,38.3,31.3,12.0,0003.0,0022.22,0008.21,0006.45
2022-06-13 14:08:00,,0816.1,5.00,0.00,29.5,27.6,00.0,38.3,31.3,13.6,0003.5,0024.35,0008.27,0006.46
2022-06-13 14:09:00,,0816.1,4.99,0.00,29.5,27.7,00.0,38.3,31.2,11.8,0003.9,0025.01,0008.40,0006.51
2022-06-13 14:10:00,,0816.1,5.01,0.00,29.5,27.8,00.0,38.3,31.3,10.1,0003.8,0023.59,0008.08,0006.18
2022-06-13 14:11:00,,0816.1,5.00,0.00,29.5,28.0,00.0,38.3,31.3,09.9,0004.1,0023.03,0007.69,0005.73
2022-06-13 14:12:00,,0816.1,5.00,0.00,29.5,28.1,00.0,38.3,31.3,09.1,0000.3,0023.45,0007.31,0005.33
2022-06-13 14:13:00,,0816.1,5.00,0.00,29.5,28.2,00.0,38.3,31.4,09.1,0000.0,0024.15,0007.08,0005.08
2022-06-13 14:14:00,,0816.1,5.00,0.00,29.5,28.3,00.0,38.4,31.4,10.4,0000.0,0023.60,0007.06,0005.03
2022-06-13 14:15:00,,0816.1,5.01,0.00,29.5,28.4,00.0,38.4,31.4,11.0,0002.6,0022.65,0007.05,0005.00
2022-06-13 14:16:00,,0816.1,5.00,0.00,29.6,28.5,00.0,38.4,31.5,10.8,0002.7,0022.54,0006.99,0004.93
2022-06-13 14:17:00,,0816.1,5.00,0.00,29.6,28.6,00.0,38.4,31.5,11.1,0001.2,0023.16,0006.92,0004.87
2022-06-13 14:18:00,,0816.2,4.99,0.00,29.6,28.3,00.0,38.3,31.5,11.8,0000.7,0022.98,0006.83,0004.74
2022-06-13 14:19:00,,0816.1,5.01,0.00,29.6,27.7,00.0,38.3,31.3,11.3,0000.0,0020.16,0006.74,0004.64
2022-06-13 14:20:00,,0816.1,4.99,0.00,29.5,27.5,00.0,38.3,31.3,12.3,0000.0,0019.85,0006.65,0004.56
2022-06-13 14:21:00,,0816.2,4.99,0.00,29.5,27.6,00.0,38.3,31.2,12.6,0000.0,0020.45,0006.68,0004.56
2022-06-13 14:22:00,,0816.1,5.01,0.00,29.4,27.7,00.0,38.3,31.2,13.3,0000.0,0020.37,0006.64,0004.53
2022-06-13 14:23:00,,0816.1,5.00,0.00,29.4,27.8,00.0,38.3,31.2,13.6,0000.0,0020.17,0006.60,0004.49
2022-06-13 14:24:00,,0816.1,5.00,0.00,29.4,27.9,00.0,38.3,31.3,12.7,0000.0,0019.42,0006.79,0004.62
2022-06-13 14:25:00,,0816.1,5.00,0.00,29.4,28.1,00.0,38.3,31.3,14.7,-000.3,0019.45,0006.96,0004.73
2022-06-13 14:26:00,,0816.2,5.00,0.00,29.4,28.2,00.0,38.3,31.3,12.4,0000.0,0020.15,0007.24,0004.92
2022-06-13 14:27:00,,0816.2,5.00,0.00,29.5,28.3,00.0,38.3,31.4,14.0,0000.0,0020.45,0007.41,0005.03
2022-06-13 14:28:00,,0816.3,5.01,0.00,29.5,28.4,00.0,38.3,31.4,13.5,0000.0,0019.94,0007.42,0005.02
2022-06-13 14:29:00,,0816.3,5.01,0.00,29.5,28.5,00.0,38.3,31.5,13.1,0000.0,0019.95,0007.38,0005.02
2022-06-13 14:30:00,,0816.3,5.00,0.00,29.5,28.1,00.0,38.3,31.3,12.5,0000.4,0020.11,0007.36,0005.03
2022-06-13 14:31:00,,0816.3,5.00,0.00,29.5,27.6,00.0,38.2,31.2,12.8,0002.0,0019.67,0007.35,0005.05
2022-06-13 14:32:00,,0816.3,5.00,0.00,29.4,27.5,00.0,38.2,31.2,14.0,0002.3,0019.49,0007.38,0005.03
2022-06-13 14:33:00,,0816.3,5.01,0.00,29.4,27.5,00.0,38.2,31.1,19.5,0002.8,0019.98,0007.51,0005.04
2022-06-13 14:34:00,,0816.2,4.99,0.00,29.3,27.6,00.0,38.2,31.1,16.4,0001.6,0021.27,0007.59,0005.02
2022-06-13 14:35:00,,0816.2,5.00,0.00,29.3,27.8,00.0,38.2,31.2,14.4,0000.0,0021.59,0007.43,0004.85
2022-06-13 14:36:00,,0816.1,5.01,0.00,29.3,27.9,00.0,38.2,31.2,15.1,0000.0,0021.47,0007.23,0004.70
2022-06-13 14:37:00,,0816.1,5.02,0.00,29.4,28.0,00.0,38.2,31.3,15.7,0000.0,0021.43,0007.00,0004.54
2022-06-13 14:38:00,,0816.1,5.00,0.00,29.4,28.2,00.0,38.2,31.3,16.7,0000.0,0020.92,0006.86,0004.50
2022-06-13 14:39:00,,0816.1,5.00,0.00,29.4,28.3,00.0,38.2,31.3,17.7,0000.0,0021.13,0006.91,0004.52
2022-06-13 14:40:00,,0816.1,5.01,0.00,29.4,28.4,00.0,38.2,31.4,18.3,0000.0,0021.73,0007.07,0004.55
2022-06-13 14:41:00,,0816.1,4.99,0.00,29.5,28.1,00.0,38.2,31.3,21.0,0000.0,0022.11,0007.14,0004.59
2022-06-13 14:42:00,,0816.1,5.00,0.00,29.4,27.5,00.0,38.1,31.1,21.0,0000.0,0023.29,0007.28,0004.64
2022-06-13 14:43:00,,0816.1,5.01,0.00,29.3,27.4,00.0,38.1,31.1,20.3,0000.0,0023.54,0007.45,0004.75
2022-06-13 14:44:00,,0816.1,5.00,0.00,29.3,27.4,00.0,38.1,31.1,18.9,0000.0,0023.26,0007.55,0004.85
2022-06-13 14:45:00,,0816.1,5.00,0.00,29.3,27.5,00.0,38.1,31.1,18.5,0000.0,0022.19,0007.64,0004.94
2022-06-13 14:46:00,,0816.1,5.00,0.00,29.3,27.7,00.0,38.1,31.1,17.2,0000.1,0022.81,0007.76,0005.04
2022-06-13 14:47:00,,0816.1,5.00,0.00,29.3,27.8,00.0,38.1,31.1,16.5,-000.2,0023.54,0007.93,0005.12
2022-06-13 14:48:00,,0816.1,4.99,0.00,29.3,27.9,00.0,38.1,31.2,12.4,-000.3,0023.82,0008.04,0005.20
2022-06-13 14:49:00,,0816.1,5.00,0.00,29.3,28.1,00.0,38.1,31.2,13.0,-000.2,0025.08,0008.25,0005.32
2022-06-13 14:50:00,,0816.1,5.00,0.00,29.3,28.2,00.0,38.1,31.3,15.4,-000.2,0025.31,0008.35,0005.43
2022-06-13 14:51:00,,0816.1,5.00,0.00,29.4,28.3,00.0,38.2,31.3,14.8,0000.1,0024.84,0008.33,0005.46
2022-06-13 14:52:00,,0816.1,5.01,0.00,29.4,28.1,00.0,38.1,31.3,14.9,0000.1,0024.42,0008.25,0005.44
2022-06-13 14:53:00,,0816.2,5.00,0.00,29.3,27.4,00.0,38.1,31.1,14.8,0000.4,0023.98,0008.17,0005.41
2022-06-13 14:54:00,,0816.2,4.99,0.00,29.3,27.2,00.0,38.0,31.1,14.8,0000.7,0023.60,0008.00,0005.34
2022-06-13 14:55:00,,0816.2,5.01,0.00,29.2,27.3,00.0,38.1,31.0,14.9,0000.9,0023.08,0007.83,0005.24
2022-06-13 14:56:00,,0816.2,5.00,0.00,29.2,27.4,00.0,38.1,31.0,14.7,0000.3,0022.62,0007.69,0005.15
2022-06-13 14:57:00,,0816.2,4.99,0.00,29.2,27.6,00.0,38.1,31.0,13.8,0001.0,0021.91,0007.59,0005.11
2022-06-13 14:58:00,,0816.2,5.01,0.00,29.2,27.7,00.0,38.1,31.1,17.2,0001.9,0022.69,0007.55,0005.07
2022-06-13 14:59:00,,0816.2,5.00,0.00,29.2,27.9,00.0,38.1,31.1,21.2,0002.8,0023.15,0007.39,0004.95
